OAS8186 EDDB-GCLP

Flight info

Callsign OAS8186
Flight time N/A
Altitude 32000
Route LUROS4N LUROS Y211 BEBKU Z36 PIKIB Z715 ABKIS DCT PEROX DCT AMOSA N869 DKB DCT TEDGO/N0437F330 N869 NATOR DCT LUTIX DCT BENOT DCT NEMOS DCT NINTU DCT MEBAK DCT REPSI DCT LERGA DCT MINSO DCT NARAK DCT AGN DCT MAQAB DCT TIVLI N869 ZAR Z245 CJN N10 HIJ M30 OXACA N858 OSLEP N747 MINTA/N0459F350 DCT BAROK UN873 SAMAR
Aircraft A21N/M-SDE2E3FGHIJ1RWXY/LB1

Departure

Time N/A
Airport Berlin Brandenburg Airport (EDDB)

Arrival

Time 2026-05-01 15:25
Airport Gran Canaria Airport (GCLP)
Time Latitude Longitude Altitude Speed Heading
2026-05-01 13:31 37.07199 -7.51768 33169 ft 387 kts 246°
2026-05-01 13:32 37.00872 -7.66624 33163 ft 387 kts 246°
2026-05-01 13:33 36.94549 -7.81408 33164 ft 387 kts 245°
2026-05-01 13:34 36.89460 -7.93274 33172 ft 387 kts 245°
2026-05-01 13:35 36.85635 -8.02166 33165 ft 387 kts 245°
2026-05-01 13:36 36.81812 -8.11006 33164 ft 386 kts 245°
2026-05-01 13:36 36.77993 -8.19839 33178 ft 386 kts 245°
2026-05-01 13:37 36.75440 -8.25716 33177 ft 385 kts 244°
2026-05-01 13:37 36.72890 -8.31592 33177 ft 385 kts 244°
2026-05-01 13:38 36.69048 -8.40407 33163 ft 386 kts 244°
2026-05-01 13:39 36.66484 -8.46287 33165 ft 386 kts 244°
2026-05-01 13:39 36.63908 -8.52169 33161 ft 386 kts 244°
2026-05-01 13:40 36.61337 -8.58041 33167 ft 387 kts 244°
2026-05-01 13:40 36.58759 -8.63911 33171 ft 386 kts 244°
2026-05-01 13:41 36.56194 -8.69733 33157 ft 386 kts 244°
2026-05-01 13:41 36.53598 -8.75633 33171 ft 386 kts 244°
2026-05-01 13:42 36.51031 -8.81442 33176 ft 386 kts 244°
2026-05-01 13:42 36.48445 -8.87297 33168 ft 386 kts 244°
2026-05-01 13:43 36.45858 -8.93140 33168 ft 386 kts 244°
2026-05-01 13:43 36.43268 -8.98976 33161 ft 386 kts 244°
2026-05-01 13:44 36.40678 -9.04803 33154 ft 386 kts 244°
2026-05-01 13:44 36.38087 -9.10633 33173 ft 385 kts 244°
2026-05-01 13:45 36.35495 -9.16453 33172 ft 385 kts 244°
2026-05-01 13:45 36.32889 -9.22270 33181 ft 386 kts 243°
2026-05-01 13:46 36.30286 -9.28090 33168 ft 386 kts 243°
2026-05-01 13:46 36.27679 -9.33901 33155 ft 386 kts 243°
2026-05-01 13:47 36.25071 -9.39713 33162 ft 386 kts 243°
2026-05-01 13:47 36.22460 -9.45521 33167 ft 386 kts 243°
2026-05-01 13:48 36.19861 -9.51286 33151 ft 386 kts 243°
2026-05-01 13:48 36.17240 -9.57091 33158 ft 387 kts 243°
2026-05-01 13:49 36.14610 -9.62904 33151 ft 387 kts 243°
2026-05-01 13:49 36.11983 -9.68703 33156 ft 387 kts 243°
2026-05-01 13:50 36.09356 -9.74503 33161 ft 387 kts 243°
2026-05-01 13:50 36.06714 -9.80312 33158 ft 387 kts 243°
2026-05-01 13:51 36.04075 -9.86110 33159 ft 387 kts 243°
2026-05-01 13:51 36.01427 -9.91909 33162 ft 387 kts 243°
2026-05-01 13:52 35.98780 -9.97711 33167 ft 387 kts 243°
2026-05-01 13:52 35.95637 -10.03127 33157 ft 393 kts 229°
2026-05-01 13:53 35.91334 -10.07380 33157 ft 398 kts 221°
2026-05-01 13:53 35.84666 -10.13485 33159 ft 398 kts 222°
2026-05-01 13:54 35.80246 -10.17583 33158 ft 398 kts 222°
2026-05-01 13:54 35.75820 -10.21674 33166 ft 397 kts 222°
2026-05-01 13:55 35.71430 -10.25726 33167 ft 397 kts 222°
2026-05-01 13:55 35.67015 -10.29808 33166 ft 397 kts 222°
2026-05-01 13:56 35.63309 -10.33222 33151 ft 397 kts 221°
2026-05-01 13:56 35.58887 -10.37294 33159 ft 397 kts 222°
2026-05-01 13:57 35.54467 -10.41364 33160 ft 397 kts 222°
2026-05-01 13:57 35.50041 -10.45429 33162 ft 397 kts 222°
2026-05-01 13:58 35.45611 -10.49485 33159 ft 397 kts 221°
2026-05-01 13:58 35.41182 -10.53535 33161 ft 397 kts 221°
2026-05-01 13:59 35.36754 -10.57595 33167 ft 397 kts 221°
2026-05-01 13:59 35.32326 -10.61639 33162 ft 397 kts 221°
2026-05-01 14:00 35.27922 -10.65658 33168 ft 397 kts 221°
2026-05-01 14:00 35.23478 -10.69700 33157 ft 398 kts 221°
2026-05-01 14:01 35.19043 -10.73739 33161 ft 397 kts 221°
2026-05-01 14:01 35.14607 -10.77766 33155 ft 398 kts 221°
2026-05-01 14:02 35.10157 -10.81789 33161 ft 398 kts 221°
2026-05-01 14:02 35.05705 -10.85808 33158 ft 398 kts 221°
2026-05-01 14:03 35.01262 -10.89833 33156 ft 398 kts 221°
2026-05-01 14:03 34.96807 -10.93848 33158 ft 398 kts 221°
2026-05-01 14:04 34.92351 -10.97865 33157 ft 399 kts 221°
2026-05-01 14:04 34.87890 -11.01886 33157 ft 399 kts 221°
2026-05-01 14:05 34.83437 -11.05890 33149 ft 398 kts 221°
2026-05-01 14:05 34.78985 -11.09888 33150 ft 398 kts 221°
2026-05-01 14:06 34.74531 -11.13884 33149 ft 398 kts 221°
2026-05-01 14:06 34.70074 -11.17871 33148 ft 398 kts 221°
2026-05-01 14:07 34.65625 -11.21858 33144 ft 398 kts 221°
2026-05-01 14:08 34.58975 -11.27823 33140 ft 398 kts 221°
2026-05-01 14:08 34.54551 -11.31798 33139 ft 394 kts 221°
2026-05-01 14:09 34.50144 -11.35749 33141 ft 394 kts 221°
2026-05-01 14:09 34.45728 -11.39697 33141 ft 394 kts 221°
2026-05-01 14:10 34.41317 -11.43641 33139 ft 394 kts 221°
2026-05-01 14:10 34.36897 -11.47587 33140 ft 394 kts 221°
2026-05-01 14:11 34.32483 -11.51525 33141 ft 395 kts 221°
2026-05-01 14:11 34.25838 -11.57435 33140 ft 395 kts 221°
2026-05-01 14:12 34.21403 -11.61365 33139 ft 395 kts 221°
2026-05-01 14:12 34.16971 -11.65292 33139 ft 395 kts 221°
2026-05-01 14:13 34.13290 -11.68553 33139 ft 395 kts 221°
2026-05-01 14:13 34.08117 -11.73137 33141 ft 395 kts 221°
2026-05-01 14:14 34.03719 -11.77028 33139 ft 395 kts 221°
2026-05-01 14:14 33.99285 -11.80947 33132 ft 395 kts 221°
2026-05-01 14:15 33.94853 -11.84854 33130 ft 395 kts 221°
2026-05-01 14:15 33.90417 -11.88759 33131 ft 395 kts 221°
2026-05-01 14:16 33.85977 -11.92662 33129 ft 395 kts 221°
2026-05-01 14:16 33.81541 -11.96557 33130 ft 395 kts 221°
2026-05-01 14:17 33.77092 -12.00457 33131 ft 396 kts 221°
2026-05-01 14:17 33.72643 -12.04350 33131 ft 396 kts 220°
2026-05-01 14:18 33.68191 -12.08233 33138 ft 396 kts 221°
2026-05-01 14:18 33.64488 -12.11462 33140 ft 396 kts 220°
2026-05-01 14:19 33.59278 -12.16003 33140 ft 397 kts 220°
2026-05-01 14:19 33.54804 -12.19899 33140 ft 398 kts 220°
2026-05-01 14:20 33.48124 -12.25707 33139 ft 397 kts 220°
2026-05-01 14:21 33.43650 -12.29594 33139 ft 397 kts 220°
2026-05-01 14:21 33.39170 -12.33496 33139 ft 399 kts 220°
2026-05-01 14:22 33.32435 -12.39333 33139 ft 399 kts 220°
2026-05-01 14:22 33.27938 -12.43218 33140 ft 399 kts 220°
2026-05-01 14:23 33.23428 -12.47109 33141 ft 400 kts 220°
2026-05-01 14:23 33.18921 -12.50990 33140 ft 400 kts 220°
2026-05-01 14:24 33.14407 -12.54878 33140 ft 400 kts 220°
2026-05-01 14:24 33.09886 -12.58767 33140 ft 401 kts 220°
2026-05-01 14:25 33.05358 -12.62653 33140 ft 401 kts 220°
2026-05-01 14:25 33.00826 -12.66536 33140 ft 401 kts 220°
2026-05-01 14:26 32.94025 -12.72362 33139 ft 402 kts 220°
2026-05-01 14:27 32.89480 -12.76246 33140 ft 403 kts 220°
2026-05-01 14:27 32.84917 -12.80119 33142 ft 403 kts 220°
2026-05-01 14:28 32.78109 -12.85897 33140 ft 403 kts 220°
2026-05-01 14:28 32.73539 -12.89756 33144 ft 403 kts 220°
2026-05-01 14:29 32.68970 -12.93632 33149 ft 404 kts 220°
2026-05-01 14:30 32.59818 -13.01358 33150 ft 404 kts 219°
2026-05-01 14:31 32.52957 -13.07140 33148 ft 404 kts 219°
2026-05-01 14:31 32.48372 -13.10999 33151 ft 405 kts 219°
2026-05-01 14:32 32.43780 -13.14854 33150 ft 404 kts 219°
2026-05-01 14:32 32.39310 -13.18604 33159 ft 404 kts 219°
2026-05-01 14:33 32.34771 -13.22394 33164 ft 404 kts 219°
2026-05-01 14:33 32.30242 -13.26196 33152 ft 405 kts 219°
2026-05-01 14:34 32.25647 -13.30046 33153 ft 405 kts 219°
2026-05-01 14:34 32.21079 -13.33860 33150 ft 402 kts 219°
2026-05-01 14:35 32.16506 -13.37668 33152 ft 402 kts 219°
2026-05-01 14:35 32.11940 -13.41479 33149 ft 402 kts 219°
2026-05-01 14:36 32.07357 -13.45293 33152 ft 403 kts 219°
2026-05-01 14:36 32.02793 -13.49068 33150 ft 404 kts 219°
2026-05-01 14:37 31.98201 -13.52870 33150 ft 404 kts 219°
2026-05-01 14:37 31.93603 -13.56694 33151 ft 405 kts 219°
2026-05-01 14:38 31.88993 -13.60513 33152 ft 405 kts 219°
2026-05-01 14:38 31.84379 -13.64327 33160 ft 405 kts 219°
2026-05-01 14:39 31.79763 -13.68137 33162 ft 405 kts 219°
2026-05-01 14:39 31.75149 -13.71942 33170 ft 405 kts 219°
2026-05-01 14:40 31.70534 -13.75741 33162 ft 406 kts 219°
2026-05-01 14:40 31.65907 -13.79546 33155 ft 406 kts 219°
2026-05-01 14:41 31.61278 -13.83344 33153 ft 406 kts 219°
2026-05-01 14:41 31.56645 -13.87143 33153 ft 406 kts 219°
2026-05-01 14:42 31.52011 -13.90940 33155 ft 407 kts 219°
2026-05-01 14:42 31.47369 -13.94739 33162 ft 407 kts 219°
2026-05-01 14:43 31.42754 -13.98512 33161 ft 408 kts 219°
2026-05-01 14:43 31.38099 -14.02311 33152 ft 408 kts 219°
2026-05-01 14:44 31.33439 -14.06105 33160 ft 409 kts 218°
2026-05-01 14:44 31.26447 -14.11821 33162 ft 409 kts 219°
2026-05-01 14:45 31.19445 -14.17555 33162 ft 410 kts 218°
2026-05-01 14:46 31.14798 -14.21353 33151 ft 407 kts 218°
2026-05-01 14:46 31.07785 -14.27077 33165 ft 418 kts 218°
2026-05-01 14:47 31.02940 -14.31027 33164 ft 431 kts 218°
2026-05-01 14:48 30.96319 -14.36411 33161 ft 437 kts 218°
2026-05-01 14:48 30.87640 -14.42473 33156 ft 446 kts 203°
2026-05-01 14:49 30.76740 -14.46461 33156 ft 447 kts 201°
2026-05-01 14:50 30.64868 -14.50828 33160 ft 448 kts 201°
2026-05-01 14:51 30.55988 -14.54090 33155 ft 448 kts 201°
2026-05-01 14:52 30.47069 -14.57363 33154 ft 449 kts 201°
2026-05-01 14:53 30.38135 -14.60641 33158 ft 449 kts 201°
2026-05-01 14:53 30.32179 -14.62810 33150 ft 449 kts 201°
2026-05-01 14:54 30.26223 -14.64985 33150 ft 449 kts 201°
2026-05-01 14:54 30.20260 -14.67158 33149 ft 449 kts 201°
2026-05-01 14:55 30.14296 -14.69329 33151 ft 449 kts 201°
2026-05-01 14:55 30.08337 -14.71494 33150 ft 449 kts 201°
2026-05-01 14:56 30.02376 -14.73660 33149 ft 449 kts 201°
2026-05-01 14:56 29.96411 -14.75823 33149 ft 450 kts 200°
2026-05-01 14:57 29.90433 -14.77991 33149 ft 450 kts 200°
2026-05-01 14:57 29.81500 -14.81220 33148 ft 451 kts 200°
2026-05-01 14:58 29.75515 -14.83381 33151 ft 451 kts 200°
2026-05-01 14:58 29.69532 -14.85539 33149 ft 450 kts 200°
2026-05-01 14:59 29.63552 -14.87695 33150 ft 450 kts 200°
2026-05-01 14:59 29.57576 -14.89844 33151 ft 450 kts 200°
2026-05-01 15:00 29.48601 -14.93067 33149 ft 450 kts 200°
2026-05-01 15:01 29.42627 -14.95212 33150 ft 450 kts 200°
2026-05-01 15:01 29.36644 -14.97352 33153 ft 450 kts 200°
2026-05-01 15:02 29.30679 -14.99486 33004 ft 446 kts 200°
2026-05-01 15:02 29.28716 -15.00188 32728 ft 447 kts 200°
2026-05-01 15:02 29.24724 -15.01616 32327 ft 451 kts 200°
2026-05-01 15:02 29.21721 -15.02688 32067 ft 452 kts 200°
2026-05-01 15:03 29.18721 -15.03759 31816 ft 453 kts 200°
2026-05-01 15:03 29.15712 -15.04833 31566 ft 453 kts 200°
2026-05-01 15:03 29.12695 -15.05908 31319 ft 454 kts 200°
2026-05-01 15:03 29.09677 -15.06983 31078 ft 455 kts 200°
2026-05-01 15:04 29.06649 -15.08059 30817 ft 456 kts 200°
2026-05-01 15:04 29.03651 -15.09124 30570 ft 457 kts 200°
2026-05-01 15:04 29.00611 -15.10207 30321 ft 458 kts 200°
2026-05-01 15:04 28.97573 -15.11286 29758 ft 456 kts 200°
2026-05-01 15:05 28.94549 -15.12358 28810 ft 455 kts 200°
2026-05-01 15:05 28.91527 -15.13428 27758 ft 456 kts 200°
2026-05-01 15:05 28.88490 -15.14504 26695 ft 456 kts 200°
2026-05-01 15:05 28.85452 -15.15584 25653 ft 458 kts 200°
2026-05-01 15:06 28.82420 -15.16658 24796 ft 455 kts 200°
2026-05-01 15:06 28.79412 -15.17721 24111 ft 448 kts 200°
2026-05-01 15:06 28.76456 -15.18766 23465 ft 441 kts 200°
2026-05-01 15:06 28.73538 -15.19798 22698 ft 438 kts 199°
2026-05-01 15:07 28.70656 -15.20816 22152 ft 430 kts 199°
2026-05-01 15:07 28.67742 -15.21847 21709 ft 443 kts 199°
2026-05-01 15:07 28.64825 -15.22876 21187 ft 434 kts 199°
2026-05-01 15:07 28.61967 -15.23883 20639 ft 425 kts 199°
2026-05-01 15:08 28.59159 -15.24873 19992 ft 419 kts 199°
2026-05-01 15:08 28.56406 -15.25843 19426 ft 411 kts 199°
2026-05-01 15:08 28.53699 -15.26796 18872 ft 404 kts 199°
2026-05-01 15:08 28.51019 -15.27740 18213 ft 402 kts 199°
2026-05-01 15:09 28.48351 -15.28679 17541 ft 400 kts 199°
2026-05-01 15:09 28.45705 -15.29612 16943 ft 396 kts 199°
2026-05-01 15:09 28.43122 -15.30520 16377 ft 392 kts 199°
2026-05-01 15:09 28.40489 -15.31446 15802 ft 389 kts 199°
2026-05-01 15:10 28.37949 -15.32339 15246 ft 386 kts 199°
2026-05-01 15:10 28.32869 -15.34120 14344 ft 380 kts 199°
2026-05-01 15:10 28.30307 -15.35013 13960 ft 379 kts 199°
2026-05-01 15:11 28.27754 -15.35907 13677 ft 399 kts 199°
2026-05-01 15:11 28.22468 -15.37758 13178 ft 389 kts 199°
2026-05-01 15:11 28.19920 -15.38647 12922 ft 378 kts 199°
2026-05-01 15:12 28.17445 -15.39511 12668 ft 374 kts 199°
2026-05-01 15:12 28.12510 -15.41230 12173 ft 362 kts 198°
2026-05-01 15:12 28.10096 -15.41695 12121 ft 345 kts 184°
2026-05-01 15:13 28.03958 -15.38871 12168 ft 328 kts 140°
2026-05-01 15:14 28.00865 -15.35304 11788 ft 307 kts 138°
2026-05-01 15:14 27.99373 -15.33585 11299 ft 306 kts 138°
2026-05-01 15:14 27.96365 -15.30173 10298 ft 304 kts 138°
2026-05-01 15:15 27.93415 -15.26852 9517 ft 293 kts 137°
2026-05-01 15:15 27.90563 -15.23651 9037 ft 284 kts 137°
2026-05-01 15:16 27.87814 -15.20568 8603 ft 273 kts 137°
2026-05-01 15:16 27.84600 -15.18611 7582 ft 264 kts 178°
2026-05-01 15:17 27.81259 -15.19810 6527 ft 258 kts 221°
2026-05-01 15:18 27.78914 -15.25137 5088 ft 256 kts 251°
2026-05-01 15:18 27.78350 -15.27004 4946 ft 245 kts 251°
2026-05-01 15:19 27.76606 -15.32460 4194 ft 250 kts 250°
2026-05-01 15:19 27.75369 -15.36083 3533 ft 238 kts 249°
2026-05-01 15:19 27.74766 -15.37783 3088 ft 230 kts 249°
2026-05-01 15:20 27.73554 -15.41060 2417 ft 223 kts 248°
2026-05-01 15:20 27.72943 -15.42653 2073 ft 219 kts 247°
2026-05-01 15:20 27.72586 -15.44284 1747 ft 209 kts 277°
2026-05-01 15:21 27.73208 -15.45688 1706 ft 206 kts 317°
2026-05-01 15:21 27.74483 -15.46359 1880 ft 204 kts 350°
2026-05-01 15:21 27.75874 -15.46138 2152 ft 206 kts 24°
2026-05-01 15:21 27.77059 -15.45329 2192 ft 196 kts 32°
2026-05-01 15:22 27.79668 -15.44685 2162 ft 195 kts 17°
2026-05-01 15:22 27.80950 -15.44180 2512 ft 195 kts 21°
2026-05-01 15:22 27.82215 -15.43620 2460 ft 194 kts 23°
2026-05-01 15:23 27.83434 -15.43020 2312 ft 187 kts 25°
2026-05-01 15:23 27.84578 -15.42427 2155 ft 176 kts 25°
2026-05-01 15:23 27.85699 -15.41908 1901 ft 174 kts 22°
2026-05-01 15:23 27.86762 -15.41458 1762 ft 152 kts 21°
2026-05-01 15:24 27.87712 -15.41079 1403 ft 140 kts 21°
2026-05-01 15:24 27.88610 -15.40712 1098 ft 139 kts 22°
2026-05-01 15:24 27.89508 -15.40316 802 ft 137 kts 24°
2026-05-01 15:24 27.90388 -15.39893 521 ft 137 kts 24°
2026-05-01 15:25 27.91284 -15.39511 276 ft 137 kts 24°
2026-05-01 15:25 27.92167 -15.39113 97 ft 135 kts 25°
2026-05-01 15:25 27.92983 -15.38748 69 ft 115 kts 21°
2026-05-01 15:25 27.93528 -15.38507 66 ft 43 kts 21°
2026-05-01 15:26 27.93744 -15.38420 66 ft 18 kts 10°
2026-05-01 15:26 27.93875 -15.38428 70 ft 19 kts 352°
2026-05-01 15:26 27.93994 -15.38447 76 ft 13 kts 351°
2026-05-01 15:26 27.94047 -15.38496 78 ft 11 kts 287°
2026-05-01 15:27 27.94077 -15.38588 82 ft 10 kts 292°
2026-05-01 15:27 27.94036 -15.38640 86 ft 12 kts 200°
2026-05-01 15:27 27.93949 -15.38679 88 ft 15 kts 201°
2026-05-01 15:28 27.93816 -15.38738 89 ft 8 kts 201°
2026-05-01 15:28 27.93760 -15.38764 89 ft 9 kts 201°
2026-05-01 15:28 27.93756 -15.38801 89 ft 6 kts 285°
2026-05-01 15:29 27.93772 -15.38850 90 ft 0 kts 291°